カタログに戻る

STARLINK-3768

運用中通信VLEO
NORAD 52301·PAYLOAD·🇺🇸 United States

打ち上げ Apr 21, 2022 から Cape Canaveral Space Force Station

Loading…

次のパス (今後24時間)

TLE

最新Source: CelesTrak SupGP

元期: Sep 14, 2026, 21:02 UTC

1 52301C 22041AS  26257.87687500 -.00026636  00000+0 -80852-3 0  2570
2 52301  53.1584 318.2687 0001249  75.3124 243.0257 15.33551763    15

AllMySatでSTARLINK-3768をリアルタイム追跡

Download on the App Store